Time,TemperatureF,DewpointF,PressureIn,WindDirection,WindDirectionDegrees,WindSpeedMPH,WindSpeedGustMPH,Humidity,HourlyPrecipIn,Conditions,Clouds,dailyrainin,SoftwareType,DateUTC
2013-08-28 00:00:00,64.4,62.0,29.87,SSW,202,1.4,2.0,94,0.00,,,0.00,Rainwise IP-100,2013-08-28 04:00:00,
2013-08-28 00:01:00,64.4,62.0,29.87,SSW,202,1.6,2.0,94,0.00,,,0.00,Rainwise IP-100,2013-08-28 04:01:00,
2013-08-28 00:06:00,64.1,62.0,29.87,SSW,202,1.9,2.0,94,0.00,,,0.00,Rainwise IP-100,2013-08-28 04:06:00,
2013-08-28 00:11:00,63.9,62.0,29.87,SE,135,3.7,4.0,94,0.00,,,0.00,Rainwise IP-100,2013-08-28 04:11:00,
2013-08-28 00:16:00,63.2,61.0,29.87,SSE,157,4.0,4.0,94,0.00,,,0.00,Rainwise IP-100,2013-08-28 04:16:00,
2013-08-28 00:21:00,62.5,61.0,29.87,South,180,2.6,4.0,94,0.00,,,0.00,Rainwise IP-100,2013-08-28 04:21:00,
2013-08-28 00:26:00,62.5,61.0,29.87,SW,225,2.3,3.0,95,0.00,,,0.00,Rainwise IP-100,2013-08-28 04:26:00,
2013-08-28 00:31:00,62.6,61.0,29.87,SW,225,1.2,2.0,96,0.00,,,0.00,Rainwise IP-100,2013-08-28 04:31:00,
2013-08-28 00:36:00,62.8,61.0,29.87,SW,225,0.0,2.0,96,0.00,,,0.00,Rainwise IP-100,2013-08-28 04:36:00,
2013-08-28 00:37:00,62.8,61.0,29.87,SW,225,0.0,2.0,96,0.00,,,0.00,Rainwise IP-100,2013-08-28 04:37:00,
2013-08-28 00:42:00,62.8,61.0,29.88,SSE,157,3.0,3.0,96,0.00,,,0.00,Rainwise IP-100,2013-08-28 04:42:00,
2013-08-28 00:47:00,62.6,61.0,29.87,SSE,157,2.1,4.0,96,0.00,,,0.00,Rainwise IP-100,2013-08-28 04:47:00,
2013-08-28 00:53:00,62.1,61.0,29.87,SSE,157,1.2,2.0,96,0.00,,,0.00,Rainwise IP-100,2013-08-28 04:53:00,
2013-08-28 00:58:00,61.8,60.0,29.87,SSE,157,2.1,3.0,96,0.00,,,0.00,Rainwise IP-100,2013-08-28 04:58:00,
2013-08-28 01:03:00,61.9,61.0,29.87,SSE,157,3.5,4.0,96,0.00,,,0.00,Rainwise IP-100,2013-08-28 05:03:00,
2013-08-28 01:08:00,62.0,61.0,29.87,SSW,202,3.0,4.0,96,0.00,,,0.00,Rainwise IP-100,2013-08-28 05:08:00,
2013-08-28 01:13:00,62.1,61.0,29.87,WSW,247,2.3,3.0,97,0.00,,,0.00,Rainwise IP-100,2013-08-28 05:13:00,
2013-08-28 01:18:00,61.9,61.0,29.87,WSW,247,3.7,4.0,97,0.00,,,0.00,Rainwise IP-100,2013-08-28 05:18:00,
2013-08-28 01:23:00,61.7,60.0,29.87,WSW,247,1.4,5.0,97,0.00,,,0.00,Rainwise IP-100,2013-08-28 05:23:00,
2013-08-28 01:28:00,61.8,60.0,29.87,WSW,247,1.2,3.0,97,0.00,,,0.00,Rainwise IP-100,2013-08-28 05:28:00,
2013-08-28 01:34:00,61.9,61.0,29.87,SSW,202,0.0,2.0,97,0.00,,,0.00,Rainwise IP-100,2013-08-28 05:34:00,
2013-08-28 01:39:00,62.1,61.0,29.87,SSW,202,0.0,1.0,97,0.00,,,0.00,Rainwise IP-100,2013-08-28 05:39:00,
2013-08-28 01:44:00,62.1,61.0,29.87,SSW,202,0.0,1.0,97,0.00,,,0.00,Rainwise IP-100,2013-08-28 05:44:00,
2013-08-28 01:49:00,61.8,60.0,29.87,SSW,202,0.0,1.0,97,0.00,,,0.00,Rainwise IP-100,2013-08-28 05:49:00,
2013-08-28 01:54:00,61.7,60.0,29.87,SSW,202,0.0,1.0,97,0.00,,,0.00,Rainwise IP-100,2013-08-28 05:54:00,
2013-08-28 01:59:00,61.7,60.0,29.87,SSW,202,0.0,1.0,97,0.00,,,0.00,Rainwise IP-100,2013-08-28 05:59:00,
2013-08-28 02:04:00,61.7,60.0,29.86,SSW,202,0.0,1.0,97,0.00,,,0.00,Rainwise IP-100,2013-08-28 06:04:00,
2013-08-28 02:05:00,61.7,60.0,29.86,SSW,202,0.0,1.0,97,0.00,,,0.00,Rainwise IP-100,2013-08-28 06:05:00,
2013-08-28 02:10:00,61.6,60.0,29.86,SSW,202,1.2,2.0,97,0.00,,,0.00,Rainwise IP-100,2013-08-28 06:10:00,
2013-08-28 02:15:00,61.9,61.0,29.86,SSW,202,1.4,1.4,97,0.00,,,0.00,Rainwise IP-100,2013-08-28 06:15:00,
2013-08-28 02:21:00,62.2,61.0,29.86,SSW,202,1.9,2.0,97,0.00,,,0.00,Rainwise IP-100,2013-08-28 06:21:00,
2013-08-28 02:26:00,62.1,61.0,29.86,SSW,202,3.0,3.0,98,0.00,,,0.00,Rainwise IP-100,2013-08-28 06:26:00,
2013-08-28 02:31:00,62.3,61.0,29.87,SSW,202,1.6,4.0,98,0.00,,,0.00,Rainwise IP-100,2013-08-28 06:31:00,
2013-08-28 02:36:00,62.6,62.0,29.86,SSW,202,0.0,1.0,98,0.00,,,0.00,Rainwise IP-100,2013-08-28 06:36:00,
2013-08-28 02:41:00,62.0,61.0,29.86,SE,135,0.0,2.0,97,0.00,,,0.00,Rainwise IP-100,2013-08-28 06:41:00,
2013-08-28 02:46:00,61.3,60.0,29.86,SE,135,2.8,2.8,97,0.00,,,0.00,Rainwise IP-100,2013-08-28 06:46:00,
2013-08-28 02:51:00,61.3,60.0,29.86,SSE,157,1.9,2.0,97,0.00,,,0.00,Rainwise IP-100,2013-08-28 06:51:00,
2013-08-28 02:56:00,61.4,60.0,29.86,SSE,157,1.2,2.0,97,0.00,,,0.00,Rainwise IP-100,2013-08-28 06:56:00,
2013-08-28 03:02:00,61.2,60.0,29.86,SSE,157,2.3,2.3,97,0.00,,,0.00,Rainwise IP-100,2013-08-28 07:02:00,
2013-08-28 03:07:00,61.1,60.0,29.86,SE,135,2.8,3.0,98,0.00,,,0.00,Rainwise IP-100,2013-08-28 07:07:00,
2013-08-28 03:12:00,60.8,60.0,29.86,SE,135,1.4,3.0,98,0.00,,,0.00,Rainwise IP-100,2013-08-28 07:12:00,
2013-08-28 03:17:00,60.8,60.0,29.86,SE,135,3.0,3.0,98,0.00,,,0.00,Rainwise IP-100,2013-08-28 07:17:00,
2013-08-28 03:22:00,60.8,60.0,29.86,ESE,112,3.3,4.0,98,0.00,,,0.00,Rainwise IP-100,2013-08-28 07:22:00,
2013-08-28 03:27:00,60.8,60.0,29.86,East,90,1.6,4.0,98,0.00,,,0.00,Rainwise IP-100,2013-08-28 07:27:00,
2013-08-28 03:32:00,60.9,60.0,29.87,ESE,112,0.0,3.0,98,0.00,,,0.00,Rainwise IP-100,2013-08-28 07:32:00,
2013-08-28 03:38:00,61.1,60.0,29.86,ESE,112,0.0,1.0,98,0.00,,,0.00,Rainwise IP-100,2013-08-28 07:38:00,
2013-08-28 03:43:00,61.2,60.0,29.86,WNW,292,2.6,4.0,98,0.00,,,0.00,Rainwise IP-100,2013-08-28 07:43:00,
2013-08-28 03:48:00,61.1,60.0,29.86,WNW,292,2.6,2.6,98,0.00,,,0.00,Rainwise IP-100,2013-08-28 07:48:00,
2013-08-28 03:53:00,61.3,60.0,29.86,NNE,22,2.3,2.3,98,0.00,,,0.00,Rainwise IP-100,2013-08-28 07:53:00,
2013-08-28 03:58:00,61.6,61.0,29.86,East,90,1.2,2.0,98,0.00,,,0.00,Rainwise IP-100,2013-08-28 07:58:00,
2013-08-28 04:03:00,61.8,61.0,29.86,ESE,112,3.0,4.0,98,0.00,,,0.00,Rainwise IP-100,2013-08-28 08:03:00,
2013-08-28 04:08:00,61.9,61.0,29.86,East,90,2.3,6.0,98,0.00,,,0.00,Rainwise IP-100,2013-08-28 08:08:00,
2013-08-28 04:13:00,62.1,61.0,29.86,ENE,67,3.3,7.0,98,0.00,,,0.00,Rainwise IP-100,2013-08-28 08:13:00,
2013-08-28 04:19:00,62.1,61.0,29.86,NE,45,0.0,5.0,98,0.00,,,0.00,Rainwise IP-100,2013-08-28 08:19:00,
2013-08-28 04:24:00,62.0,61.0,29.86,NE,45,0.0,1.0,98,0.00,,,0.00,Rainwise IP-100,2013-08-28 08:24:00,
2013-08-28 04:29:00,62.1,61.0,29.86,ENE,67,2.3,2.3,99,0.00,,,0.00,Rainwise IP-100,2013-08-28 08:29:00,
2013-08-28 04:34:00,62.0,61.0,29.86,ENE,67,1.9,4.0,99,0.00,,,0.00,Rainwise IP-100,2013-08-28 08:34:00,
2013-08-28 04:39:00,61.9,61.0,29.86,ENE,67,2.3,3.0,99,0.00,,,0.00,Rainwise IP-100,2013-08-28 08:39:00,
2013-08-28 04:44:00,61.8,61.0,29.86,ENE,67,2.1,4.0,99,0.00,,,0.00,Rainwise IP-100,2013-08-28 08:44:00,
2013-08-28 04:49:00,61.8,61.0,29.86,NNE,22,4.4,4.4,99,0.00,,,0.00,Rainwise IP-100,2013-08-28 08:49:00,
2013-08-28 04:55:00,61.7,61.0,29.86,NE,45,1.9,5.0,99,0.00,,,0.00,Rainwise IP-100,2013-08-28 08:55:00,
2013-08-28 05:00:00,61.7,61.0,29.86,NE,45,2.8,4.0,99,0.00,,,0.00,Rainwise IP-100,2013-08-28 09:00:00,
2013-08-28 05:05:00,61.9,61.0,29.87,NNE,22,0.0,4.0,99,0.00,,,0.00,Rainwise IP-100,2013-08-28 09:05:00,
2013-08-28 05:10:00,62.0,61.0,29.87,NNE,22,2.3,3.0,99,0.00,,,0.00,Rainwise IP-100,2013-08-28 09:10:00,
2013-08-28 05:15:00,62.2,61.0,29.87,NNE,22,4.0,4.0,99,0.00,,,0.00,Rainwise IP-100,2013-08-28 09:15:00,
2013-08-28 05:20:00,62.4,62.0,29.87,NE,45,2.6,4.0,99,0.00,,,0.00,Rainwise IP-100,2013-08-28 09:20:00,
2013-08-28 05:25:00,62.4,62.0,29.86,NE,45,2.3,3.0,99,0.00,,,0.00,Rainwise IP-100,2013-08-28 09:25:00,
2013-08-28 05:30:00,62.4,62.0,29.86,NNE,22,3.5,5.0,99,0.00,,,0.00,Rainwise IP-100,2013-08-28 09:30:00,
2013-08-28 05:36:00,62.4,62.0,29.87,ENE,67,4.2,4.2,99,0.00,,,0.00,Rainwise IP-100,2013-08-28 09:36:00,
2013-08-28 05:41:00,62.3,61.0,29.86,ENE,67,4.0,4.0,99,0.00,,,0.00,Rainwise IP-100,2013-08-28 09:41:00,
2013-08-28 05:46:00,62.2,61.0,29.86,NNE,22,2.1,4.0,99,0.00,,,0.00,Rainwise IP-100,2013-08-28 09:46:00,
2013-08-28 05:51:00,62.2,61.0,29.87,ENE,67,3.0,5.0,99,0.00,,,0.00,Rainwise IP-100,2013-08-28 09:51:00,
2013-08-28 05:56:00,62.1,61.0,29.86,ENE,67,3.0,4.0,99,0.00,,,0.00,Rainwise IP-100,2013-08-28 09:56:00,
2013-08-28 06:01:00,62.1,61.0,29.87,NE,45,2.3,4.0,99,0.00,,,0.00,Rainwise IP-100,2013-08-28 10:01:00,
2013-08-28 06:06:00,62.0,61.0,29.87,ENE,67,2.6,4.0,99,0.00,,,0.00,Rainwise IP-100,2013-08-28 10:06:00,
2013-08-28 06:12:00,62.0,61.0,29.87,NNE,22,1.2,4.0,99,0.00,,,0.00,Rainwise IP-100,2013-08-28 10:12:00,
2013-08-28 06:17:00,62.0,61.0,29.87,East,90,2.3,4.0,99,0.00,,,0.00,Rainwise IP-100,2013-08-28 10:17:00,
2013-08-28 06:22:00,62.1,61.0,29.88,ENE,67,1.4,4.0,99,0.00,,,0.00,Rainwise IP-100,2013-08-28 10:22:00,
2013-08-28 06:27:00,62.1,61.0,29.88,NW,315,0.0,2.0,99,0.00,,,0.00,Rainwise IP-100,2013-08-28 10:27:00,
2013-08-28 06:32:00,62.3,61.0,29.88,WSW,247,0.0,0.0,99,0.00,,,0.00,Rainwise IP-100,2013-08-28 10:32:00,
2013-08-28 06:37:00,62.4,62.0,29.88,SE,135,2.3,2.3,99,0.00,,,0.00,Rainwise IP-100,2013-08-28 10:37:00,
2013-08-28 06:42:00,62.4,62.0,29.88,ESE,112,1.9,2.0,99,0.00,,,0.00,Rainwise IP-100,2013-08-28 10:42:00,
2013-08-28 06:47:00,62.4,62.0,29.88,ESE,112,4.0,4.0,99,0.00,,,0.00,Rainwise IP-100,2013-08-28 10:47:00,
2013-08-28 06:53:00,62.5,62.0,29.88,East,90,2.3,4.0,99,0.00,,,0.00,Rainwise IP-100,2013-08-28 10:53:00,
2013-08-28 06:58:00,62.5,62.0,29.88,East,90,0.0,3.0,99,0.00,,,0.00,Rainwise IP-100,2013-08-28 10:58:00,
2013-08-28 07:03:00,62.5,62.0,29.88,East,90,0.0,1.0,99,0.00,,,0.00,Rainwise IP-100,2013-08-28 11:03:00,
2013-08-28 07:08:00,62.5,62.0,29.89,East,90,0.0,1.0,99,0.00,,,0.00,Rainwise IP-100,2013-08-28 11:08:00,
2013-08-28 07:13:00,62.7,62.0,29.88,ENE,67,3.3,3.3,99,0.00,,,0.00,Rainwise IP-100,2013-08-28 11:13:00,
2013-08-28 07:18:00,62.8,62.0,29.89,ESE,112,1.9,4.0,100,0.00,,,0.00,Rainwise IP-100,2013-08-28 11:18:00,
2013-08-28 07:23:00,62.8,62.0,29.89,ESE,112,3.5,4.0,100,0.00,,,0.00,Rainwise IP-100,2013-08-28 11:23:00,
2013-08-28 07:29:00,62.8,62.0,29.89,SSE,157,1.4,3.0,100,0.00,,,0.00,Rainwise IP-100,2013-08-28 11:29:00,
2013-08-28 07:34:00,62.9,63.0,29.89,ESE,112,2.6,2.6,100,0.00,,,0.00,Rainwise IP-100,2013-08-28 11:34:00,
2013-08-28 07:39:00,63.0,63.0,29.89,ESE,112,0.0,3.0,100,0.00,,,0.00,Rainwise IP-100,2013-08-28 11:39:00,
2013-08-28 07:44:00,63.1,63.0,29.89,ESE,112,0.0,1.0,100,0.00,,,0.00,Rainwise IP-100,2013-08-28 11:44:00,
2013-08-28 07:49:00,63.3,63.0,29.89,ESE,112,0.0,0.0,100,0.00,,,0.00,Rainwise IP-100,2013-08-28 11:49:00,
2013-08-28 07:54:00,63.3,63.0,29.89,ESE,112,1.2,1.2,100,0.00,,,0.00,Rainwise IP-100,2013-08-28 11:54:00,
2013-08-28 07:59:00,63.3,63.0,29.89,SE,135,1.9,3.0,100,0.00,,,0.00,Rainwise IP-100,2013-08-28 11:59:00,
2013-08-28 08:04:00,63.5,63.0,29.90,SSE,157,1.9,3.0,100,0.00,,,0.00,Rainwise IP-100,2013-08-28 12:04:00,
2013-08-28 08:10:00,63.8,63.0,29.90,SSE,157,3.3,3.3,100,0.00,,,0.00,Rainwise IP-100,2013-08-28 12:10:00,
2013-08-28 08:15:00,63.8,63.0,29.89,SSE,157,2.1,3.0,99,0.00,,,0.00,Rainwise IP-100,2013-08-28 12:15:00,
2013-08-28 08:20:00,63.7,63.0,29.89,South,180,0.0,3.0,99,0.00,,,0.00,Rainwise IP-100,2013-08-28 12:20:00,
2013-08-28 08:25:00,63.9,63.0,29.89,SSE,157,2.8,3.0,99,0.00,,,0.00,Rainwise IP-100,2013-08-28 12:25:00,
2013-08-28 08:30:00,63.9,63.0,29.89,SE,135,3.5,3.5,99,0.00,,,0.00,Rainwise IP-100,2013-08-28 12:30:00,
2013-08-28 08:35:00,63.7,63.0,29.89,SSE,157,2.8,4.0,99,0.00,,,0.00,Rainwise IP-100,2013-08-28 12:35:00,
2013-08-28 08:40:00,63.7,63.0,29.89,South,180,3.3,4.0,99,0.00,,,0.00,Rainwise IP-100,2013-08-28 12:40:00,
2013-08-28 08:46:00,63.8,63.0,29.89,SSW,202,1.2,4.0,99,0.00,,,0.00,Rainwise IP-100,2013-08-28 12:46:00,
2013-08-28 08:51:00,64.1,63.0,29.89,SE,135,2.6,3.0,99,0.00,,,0.00,Rainwise IP-100,2013-08-28 12:51:00,
2013-08-28 08:56:00,64.3,63.0,29.89,SSE,157,1.9,3.0,99,0.00,,,0.00,Rainwise IP-100,2013-08-28 12:56:00,
2013-08-28 09:01:00,64.4,64.0,29.89,SSE,157,1.2,3.0,99,0.00,,,0.00,Rainwise IP-100,2013-08-28 13:01:00,
2013-08-28 09:06:00,64.7,64.0,29.89,SSE,157,1.6,3.0,99,0.00,,,0.00,Rainwise IP-100,2013-08-28 13:06:00,
2013-08-28 09:11:00,65.3,64.0,29.89,SSW,202,2.3,3.0,99,0.00,,,0.00,Rainwise IP-100,2013-08-28 13:11:00,
2013-08-28 09:16:00,65.9,65.0,29.89,SSE,157,2.8,4.0,99,0.00,,,0.00,Rainwise IP-100,2013-08-28 13:16:00,
2013-08-28 09:21:00,66.5,66.0,29.89,SSE,157,3.3,5.0,98,0.00,,,0.00,Rainwise IP-100,2013-08-28 13:21:00,
2013-08-28 09:27:00,67.3,66.0,29.89,ESE,112,2.3,5.0,97,0.00,,,0.00,Rainwise IP-100,2013-08-28 13:27:00,
2013-08-28 09:32:00,68.2,66.0,29.90,ESE,112,5.8,6.0,96,0.00,,,0.00,Rainwise IP-100,2013-08-28 13:32:00,
2013-08-28 09:37:00,68.0,66.0,29.89,ENE,67,7.0,8.0,94,0.00,,,0.00,Rainwise IP-100,2013-08-28 13:37:00,
2013-08-28 09:42:00,67.4,65.0,29.90,East,90,4.4,9.0,93,0.00,,,0.00,Rainwise IP-100,2013-08-28 13:42:00,
2013-08-28 09:47:00,66.7,64.0,29.90,ENE,67,4.9,9.0,93,0.00,,,0.00,Rainwise IP-100,2013-08-28 13:47:00,
2013-08-28 09:52:00,66.1,63.0,29.90,East,90,3.7,7.0,92,0.00,,,0.00,Rainwise IP-100,2013-08-28 13:52:00,
2013-08-28 09:57:00,65.7,63.0,29.90,ENE,67,2.6,8.0,92,0.00,,,0.00,Rainwise IP-100,2013-08-28 13:57:00,
2013-08-28 10:03:00,64.9,63.0,29.90,ENE,67,2.6,7.0,93,0.00,,,0.00,Rainwise IP-100,2013-08-28 14:03:00,
2013-08-28 10:08:00,64.2,62.0,29.90,ENE,67,4.4,7.0,93,0.00,,,0.00,Rainwise IP-100,2013-08-28 14:08:00,
2013-08-28 10:13:00,63.9,62.0,29.91,ENE,67,5.4,6.0,94,0.00,,,0.00,Rainwise IP-100,2013-08-28 14:13:00,
2013-08-28 10:18:00,63.7,61.0,29.91,ENE,67,3.7,7.0,94,0.00,,,0.00,Rainwise IP-100,2013-08-28 14:18:00,
2013-08-28 10:23:00,63.7,62.0,29.91,ENE,67,0.0,6.0,95,0.00,,,0.00,Rainwise IP-100,2013-08-28 14:23:00,
2013-08-28 10:28:00,64.1,62.0,29.91,ESE,112,6.1,6.1,94,0.00,,,0.00,Rainwise IP-100,2013-08-28 14:28:00,
2013-08-28 10:33:00,64.3,62.0,29.91,ENE,67,4.7,7.0,94,0.00,,,0.00,Rainwise IP-100,2013-08-28 14:33:00,
2013-08-28 10:38:00,64.6,62.0,29.91,ENE,67,4.9,6.0,94,0.00,,,0.00,Rainwise IP-100,2013-08-28 14:38:00,
2013-08-28 10:44:00,65.6,63.0,29.91,ENE,67,7.2,7.2,94,0.00,,,0.00,Rainwise IP-100,2013-08-28 14:44:00,
2013-08-28 10:49:00,66.1,63.0,29.91,ENE,67,2.1,7.0,92,0.00,,,0.00,Rainwise IP-100,2013-08-28 14:49:00,
2013-08-28 10:54:00,66.6,64.0,29.90,ENE,67,2.1,5.0,92,0.00,,,0.00,Rainwise IP-100,2013-08-28 14:54:00,
2013-08-28 10:59:00,67.1,64.0,29.90,ENE,67,4.0,6.0,91,0.00,,,0.00,Rainwise IP-100,2013-08-28 14:59:00,
2013-08-28 11:04:00,67.3,64.0,29.91,NE,45,5.6,6.0,90,0.00,,,0.00,Rainwise IP-100,2013-08-28 15:04:00,
2013-08-28 11:09:00,67.5,64.0,29.90,East,90,4.2,10.0,90,0.00,,,0.00,Rainwise IP-100,2013-08-28 15:09:00,
2013-08-28 11:14:00,67.6,64.0,29.91,ESE,112,4.7,7.0,89,0.00,,,0.00,Rainwise IP-100,2013-08-28 15:14:00,
2013-08-28 11:20:00,67.7,64.0,29.90,East,90,3.0,6.0,89,0.00,,,0.00,Rainwise IP-100,2013-08-28 15:20:00,
2013-08-28 11:25:00,68.2,64.0,29.90,ENE,67,6.8,8.0,89,0.00,,,0.00,Rainwise IP-100,2013-08-28 15:25:00,
2013-08-28 11:30:00,68.2,64.0,29.90,ENE,67,3.5,9.0,88,0.00,,,0.00,Rainwise IP-100,2013-08-28 15:30:00,
2013-08-28 11:35:00,67.9,64.0,29.90,ENE,67,6.3,7.0,88,0.00,,,0.00,Rainwise IP-100,2013-08-28 15:35:00,
2013-08-28 11:40:00,68.0,64.0,29.90,ENE,67,4.4,7.0,87,0.00,,,0.00,Rainwise IP-100,2013-08-28 15:40:00,
2013-08-28 11:45:00,68.0,64.0,29.90,East,90,3.7,8.0,87,0.00,,,0.00,Rainwise IP-100,2013-08-28 15:45:00,
2013-08-28 11:50:00,68.3,64.0,29.90,ENE,67,4.2,7.0,87,0.00,,,0.00,Rainwise IP-100,2013-08-28 15:50:00,
2013-08-28 11:55:00,68.7,64.0,29.90,NE,45,6.8,8.0,86,0.00,,,0.00,Rainwise IP-100,2013-08-28 15:55:00,
2013-08-28 12:01:00,69.2,65.0,29.89,East,90,4.4,8.0,86,0.00,,,0.00,Rainwise IP-100,2013-08-28 16:01:00,
2013-08-28 12:06:00,69.4,64.0,29.89,NNE,22,3.0,7.0,85,0.00,,,0.00,Rainwise IP-100,2013-08-28 16:06:00,
2013-08-28 12:11:00,69.8,64.0,29.88,East,90,2.8,6.0,84,0.00,,,0.00,Rainwise IP-100,2013-08-28 16:11:00,
2013-08-28 12:16:00,70.2,65.0,29.88,ENE,67,3.7,6.0,84,0.00,,,0.00,Rainwise IP-100,2013-08-28 16:16:00,
2013-08-28 12:21:00,70.4,65.0,29.88,ESE,112,1.4,5.0,83,0.00,,,0.00,Rainwise IP-100,2013-08-28 16:21:00,
2013-08-28 12:26:00,70.5,65.0,29.88,ENE,67,4.7,7.0,83,0.00,,,0.00,Rainwise IP-100,2013-08-28 16:26:00,
2013-08-28 12:31:00,70.7,65.0,29.88,East,90,2.8,6.0,82,0.00,,,0.00,Rainwise IP-100,2013-08-28 16:31:00,
2013-08-28 12:37:00,71.2,65.0,29.88,ENE,67,3.3,5.0,81,0.00,,,0.00,Rainwise IP-100,2013-08-28 16:37:00,
2013-08-28 12:42:00,71.6,65.0,29.88,ENE,67,3.7,5.0,81,0.00,,,0.00,Rainwise IP-100,2013-08-28 16:42:00,
2013-08-28 12:47:00,71.9,65.0,29.88,ENE,67,4.0,6.0,80,0.00,,,0.00,Rainwise IP-100,2013-08-28 16:47:00,
2013-08-28 12:52:00,72.1,65.0,29.88,East,90,3.7,6.0,79,0.00,,,0.00,Rainwise IP-100,2013-08-28 16:52:00,
2013-08-28 12:57:00,72.2,65.0,29.88,ESE,112,4.9,7.0,79,0.00,,,0.00,Rainwise IP-100,2013-08-28 16:57:00,
2013-08-28 13:02:00,72.2,65.0,29.88,ENE,67,2.8,6.0,79,0.00,,,0.00,Rainwise IP-100,2013-08-28 17:02:00,
2013-08-28 13:07:00,72.0,65.0,29.88,ENE,67,7.7,8.0,79,0.00,,,0.00,Rainwise IP-100,2013-08-28 17:07:00,
2013-08-28 13:12:00,71.4,64.0,29.88,East,90,5.6,8.0,79,0.00,,,0.00,Rainwise IP-100,2013-08-28 17:12:00,
2013-08-28 13:18:00,71.3,65.0,29.88,ENE,67,5.6,7.0,80,0.00,,,0.00,Rainwise IP-100,2013-08-28 17:18:00,
2013-08-28 13:23:00,71.4,65.0,29.88,ESE,112,6.5,8.0,80,0.00,,,0.00,Rainwise IP-100,2013-08-28 17:23:00,
2013-08-28 13:28:00,71.0,64.0,29.88,East,90,3.5,9.0,80,0.00,,,0.00,Rainwise IP-100,2013-08-28 17:28:00,
2013-08-28 13:33:00,70.5,64.0,29.87,ENE,67,5.8,7.0,80,0.00,,,0.00,Rainwise IP-100,2013-08-28 17:33:00,
2013-08-28 13:38:00,70.1,64.0,29.87,East,90,6.5,8.0,81,0.00,,,0.00,Rainwise IP-100,2013-08-28 17:38:00,
2013-08-28 13:43:00,70.3,64.0,29.87,ESE,112,6.5,8.0,81,0.00,,,0.00,Rainwise IP-100,2013-08-28 17:43:00,
2013-08-28 13:48:00,70.7,64.0,29.87,ENE,67,4.0,8.0,80,0.00,,,0.00,Rainwise IP-100,2013-08-28 17:48:00,
2013-08-28 13:54:00,70.9,64.0,29.87,East,90,4.0,7.0,80,0.00,,,0.00,Rainwise IP-100,2013-08-28 17:54:00,
2013-08-28 13:59:00,71.3,65.0,29.87,NE,45,5.1,6.0,80,0.00,,,0.00,Rainwise IP-100,2013-08-28 17:59:00,
2013-08-28 14:04:00,71.9,65.0,29.87,ENE,67,3.7,7.0,79,0.00,,,0.00,Rainwise IP-100,2013-08-28 18:04:00,
2013-08-28 14:09:00,72.5,65.0,29.86,ENE,67,5.4,5.4,78,0.00,,,0.00,Rainwise IP-100,2013-08-28 18:09:00,
2013-08-28 14:14:00,72.8,65.0,29.86,ESE,112,5.1,9.0,77,0.00,,,0.00,Rainwise IP-100,2013-08-28 18:14:00,
2013-08-28 14:19:00,73.0,65.0,29.86,ENE,67,5.8,8.0,77,0.00,,,0.00,Rainwise IP-100,2013-08-28 18:19:00,
2013-08-28 14:24:00,73.1,65.0,29.87,ENE,67,6.8,7.0,77,0.00,,,0.00,Rainwise IP-100,2013-08-28 18:24:00,
2013-08-28 14:29:00,73.5,66.0,29.86,ENE,67,5.4,8.0,77,0.00,,,0.00,Rainwise IP-100,2013-08-28 18:29:00,
2013-08-28 14:35:00,73.4,65.0,29.86,ENE,67,6.8,10.0,76,0.00,,,0.00,Rainwise IP-100,2013-08-28 18:35:00,
2013-08-28 14:40:00,72.7,65.0,29.86,East,90,4.0,9.0,76,0.00,,,0.00,Rainwise IP-100,2013-08-28 18:40:00,
2013-08-28 14:45:00,72.9,65.0,29.86,SE,135,6.8,8.0,77,0.00,,,0.00,Rainwise IP-100,2013-08-28 18:45:00,
2013-08-28 14:50:00,72.4,65.0,29.86,SE,135,6.1,12.0,77,0.00,,,0.00,Rainwise IP-100,2013-08-28 18:50:00,
2013-08-28 14:55:00,71.2,63.0,29.86,SE,135,9.1,12.0,77,0.00,,,0.00,Rainwise IP-100,2013-08-28 18:55:00,
2013-08-28 15:00:00,70.8,63.0,29.86,ESE,112,5.8,10.0,78,0.00,,,0.00,Rainwise IP-100,2013-08-28 19:00:00,
2013-08-28 15:05:00,70.8,63.0,29.87,SSE,157,6.3,7.0,79,0.00,,,0.00,Rainwise IP-100,2013-08-28 19:05:00,
2013-08-28 15:11:00,70.8,63.0,29.87,ESE,112,5.8,9.0,78,0.00,,,0.00,Rainwise IP-100,2013-08-28 19:11:00,
2013-08-28 15:16:00,70.5,63.0,29.87,ESE,112,4.9,8.0,79,0.00,,,0.00,Rainwise IP-100,2013-08-28 19:16:00,
2013-08-28 15:21:00,70.7,63.0,29.87,ESE,112,7.2,7.2,79,0.00,,,0.00,Rainwise IP-100,2013-08-28 19:21:00,
2013-08-28 15:26:00,71.1,64.0,29.87,SE,135,4.7,8.0,79,0.00,,,0.00,Rainwise IP-100,2013-08-28 19:26:00,
2013-08-28 15:31:00,71.4,64.0,29.86,ESE,112,7.0,7.0,78,0.00,,,0.00,Rainwise IP-100,2013-08-28 19:31:00,
2013-08-28 15:36:00,71.4,64.0,29.86,SE,135,6.8,7.0,78,0.00,,,0.00,Rainwise IP-100,2013-08-28 19:36:00,
2013-08-28 15:41:00,71.1,63.0,29.86,ESE,112,6.5,8.0,78,0.00,,,0.00,Rainwise IP-100,2013-08-28 19:41:00,
2013-08-28 15:46:00,71.0,63.0,29.86,SE,135,7.7,10.0,78,0.00,,,0.00,Rainwise IP-100,2013-08-28 19:46:00,
2013-08-28 15:52:00,70.9,64.0,29.87,SE,135,5.4,7.0,79,0.00,,,0.00,Rainwise IP-100,2013-08-28 19:52:00,
2013-08-28 15:57:00,70.8,63.0,29.87,ESE,112,4.4,7.0,79,0.00,,,0.00,Rainwise IP-100,2013-08-28 19:57:00,
2013-08-28 16:02:00,70.8,63.0,29.87,ESE,112,3.5,7.0,79,0.00,,,0.00,Rainwise IP-100,2013-08-28 20:02:00,
2013-08-28 16:07:00,71.3,64.0,29.87,ESE,112,5.8,6.0,79,0.00,,,0.00,Rainwise IP-100,2013-08-28 20:07:00,
2013-08-28 16:12:00,71.3,64.0,29.87,ESE,112,6.3,7.0,79,0.00,,,0.00,Rainwise IP-100,2013-08-28 20:12:00,
2013-08-28 16:17:00,70.8,63.0,29.87,ENE,67,3.3,8.0,79,0.00,,,0.00,Rainwise IP-100,2013-08-28 20:17:00,
2013-08-28 16:22:00,70.5,64.0,29.87,ESE,112,6.8,8.0,80,0.00,,,0.00,Rainwise IP-100,2013-08-28 20:22:00,
2013-08-28 16:28:00,70.0,63.0,29.87,East,90,6.5,10.0,80,0.00,,,0.00,Rainwise IP-100,2013-08-28 20:28:00,
2013-08-28 16:33:00,69.4,63.0,29.87,ENE,67,5.4,9.0,81,0.00,,,0.00,Rainwise IP-100,2013-08-28 20:33:00,
2013-08-28 16:38:00,69.4,63.0,29.86,ENE,67,3.5,9.0,81,0.00,,,0.00,Rainwise IP-100,2013-08-28 20:38:00,
2013-08-28 16:43:00,69.8,63.0,29.88,ENE,67,5.6,6.0,81,0.00,,,0.00,Rainwise IP-100,2013-08-28 20:43:00,
2013-08-28 16:48:00,69.7,64.0,29.87,ESE,112,5.4,7.0,82,0.00,,,0.00,Rainwise IP-100,2013-08-28 20:48:00,
2013-08-28 16:53:00,69.3,63.0,29.88,ENE,67,3.0,7.0,82,0.00,,,0.00,Rainwise IP-100,2013-08-28 20:53:00,
2013-08-28 16:58:00,69.1,63.0,29.88,ENE,67,4.4,6.0,83,0.00,,,0.00,Rainwise IP-100,2013-08-28 20:58:00,
2013-08-28 17:03:00,69.0,64.0,29.88,ENE,67,4.7,7.0,84,0.00,,,0.00,Rainwise IP-100,2013-08-28 21:03:00,
2013-08-28 17:09:00,68.9,64.0,29.88,ENE,67,4.2,6.0,84,0.00,,,0.00,Rainwise IP-100,2013-08-28 21:09:00,
2013-08-28 17:14:00,68.8,63.0,29.88,East,90,4.7,8.0,84,0.00,,,0.00,Rainwise IP-100,2013-08-28 21:14:00,
2013-08-28 17:19:00,68.6,64.0,29.88,East,90,4.0,6.0,85,0.00,,,0.00,Rainwise IP-100,2013-08-28 21:19:00,
2013-08-28 17:24:00,68.5,64.0,29.88,ESE,112,2.6,5.0,85,0.00,,,0.00,Rainwise IP-100,2013-08-28 21:24:00,
2013-08-28 17:29:00,68.2,63.0,29.88,ENE,67,7.0,7.0,85,0.00,,,0.00,Rainwise IP-100,2013-08-28 21:29:00,
2013-08-28 17:34:00,67.9,63.0,29.88,ENE,67,4.7,7.0,86,0.00,,,0.00,Rainwise IP-100,2013-08-28 21:34:00,
2013-08-28 17:39:00,67.6,63.0,29.88,ESE,112,4.7,6.0,87,0.00,,,0.00,Rainwise IP-100,2013-08-28 21:39:00,
2013-08-28 17:45:00,67.6,63.0,29.88,ESE,112,2.1,5.0,87,0.00,,,0.00,Rainwise IP-100,2013-08-28 21:45:00,
2013-08-28 17:50:00,67.6,63.0,29.88,East,90,3.0,4.0,86,0.00,,,0.00,Rainwise IP-100,2013-08-28 21:50:00,
2013-08-28 17:55:00,67.2,63.0,29.88,ESE,112,4.4,5.0,86,0.00,,,0.00,Rainwise IP-100,2013-08-28 21:55:00,
2013-08-28 18:00:00,66.5,62.0,29.88,ESE,112,2.8,6.0,87,0.00,,,0.00,Rainwise IP-100,2013-08-28 22:00:00,
2013-08-28 18:05:00,66.1,62.0,29.88,ENE,67,3.5,4.0,87,0.00,,,0.00,Rainwise IP-100,2013-08-28 22:05:00,
2013-08-28 18:10:00,65.7,61.0,29.89,ENE,67,5.1,6.0,88,0.00,,,0.00,Rainwise IP-100,2013-08-28 22:10:00,
2013-08-28 18:15:00,65.6,61.0,29.89,East,90,3.5,7.0,88,0.00,,,0.00,Rainwise IP-100,2013-08-28 22:15:00,
2013-08-28 18:20:00,65.5,62.0,29.90,ESE,112,4.7,6.0,89,0.00,,,0.00,Rainwise IP-100,2013-08-28 22:20:00,
2013-08-28 18:26:00,65.2,61.0,29.90,ENE,67,3.5,6.0,89,0.00,,,0.00,Rainwise IP-100,2013-08-28 22:26:00,
2013-08-28 18:31:00,64.8,61.0,29.90,East,90,2.1,4.0,89,0.00,,,0.00,Rainwise IP-100,2013-08-28 22:31:00,
2013-08-28 18:36:00,64.6,61.0,29.91,ENE,67,2.8,2.8,90,0.00,,,0.00,Rainwise IP-100,2013-08-28 22:36:00,
2013-08-28 18:41:00,64.5,61.0,29.90,ENE,67,2.1,4.0,90,0.00,,,0.00,Rainwise IP-100,2013-08-28 22:41:00,
2013-08-28 18:46:00,64.4,61.0,29.91,SE,135,2.1,3.0,90,0.00,,,0.00,Rainwise IP-100,2013-08-28 22:46:00,
2013-08-28 18:51:00,64.6,61.0,29.92,SSE,157,0.0,2.0,90,0.00,,,0.00,Rainwise IP-100,2013-08-28 22:51:00,
2013-08-28 18:56:00,64.6,61.0,29.92,SSW,202,1.2,1.2,90,0.00,,,0.00,Rainwise IP-100,2013-08-28 22:56:00,
2013-08-28 19:02:00,64.4,61.0,29.93,SE,135,0.0,1.0,90,0.00,,,0.00,Rainwise IP-100,2013-08-28 23:02:00,
2013-08-28 19:07:00,64.3,61.0,29.93,East,90,3.0,3.0,90,0.00,,,0.00,Rainwise IP-100,2013-08-28 23:07:00,
2013-08-28 19:12:00,64.2,61.0,29.93,ENE,67,3.3,4.0,91,0.00,,,0.00,Rainwise IP-100,2013-08-28 23:12:00,
2013-08-28 19:17:00,64.0,61.0,29.94,NNE,22,3.0,4.0,91,0.00,,,0.00,Rainwise IP-100,2013-08-28 23:17:00,
2013-08-28 19:22:00,63.8,61.0,29.95,NNE,22,8.6,8.6,92,0.00,,,0.00,Rainwise IP-100,2013-08-28 23:22:00,
2013-08-28 19:27:00,63.8,61.0,29.95,NE,45,2.3,10.0,93,0.00,,,0.00,Rainwise IP-100,2013-08-28 23:27:00,
2013-08-28 19:32:00,63.9,62.0,29.95,ENE,67,1.9,4.0,93,0.00,,,0.00,Rainwise IP-100,2013-08-28 23:32:00,
2013-08-28 19:37:00,63.9,62.0,29.96,ENE,67,4.7,4.7,93,0.00,,,0.00,Rainwise IP-100,2013-08-28 23:37:00,
2013-08-28 19:43:00,63.7,61.0,29.95,ENE,67,5.8,7.0,93,0.00,,,0.00,Rainwise IP-100,2013-08-28 23:43:00,
2013-08-28 19:48:00,63.4,61.0,29.95,ENE,67,7.9,9.0,93,0.00,,,0.00,Rainwise IP-100,2013-08-28 23:48:00,
2013-08-28 19:53:00,63.2,61.0,29.95,ENE,67,4.2,9.0,93,0.00,,,0.00,Rainwise IP-100,2013-08-28 23:53:00,
2013-08-28 19:58:00,63.0,61.0,29.95,ENE,67,3.5,7.0,93,0.00,,,0.00,Rainwise IP-100,2013-08-28 23:58:00,
2013-08-28 20:03:00,62.9,61.0,29.96,ENE,67,3.3,4.0,94,0.00,,,0.00,Rainwise IP-100,2013-08-29 00:03:00,
2013-08-28 20:08:00,62.9,61.0,29.96,ENE,67,2.6,4.0,94,0.00,,,0.00,Rainwise IP-100,2013-08-29 00:08:00,
2013-08-28 20:13:00,63.0,61.0,29.97,NE,45,4.0,4.0,95,0.00,,,0.00,Rainwise IP-100,2013-08-29 00:13:00,
2013-08-28 20:19:00,63.2,61.0,29.96,NE,45,3.7,6.0,95,0.00,,,0.00,Rainwise IP-100,2013-08-29 00:19:00,
2013-08-28 20:24:00,63.4,62.0,29.96,ENE,67,4.0,6.0,95,0.00,,,0.00,Rainwise IP-100,2013-08-29 00:24:00,
2013-08-28 20:29:00,63.4,62.0,29.97,ENE,67,2.8,4.0,95,0.00,,,0.00,Rainwise IP-100,2013-08-29 00:29:00,
2013-08-28 20:34:00,63.5,62.0,29.97,ESE,112,1.2,3.0,95,0.00,,,0.00,Rainwise IP-100,2013-08-29 00:34:00,
2013-08-28 20:39:00,63.6,62.0,29.96,East,90,2.1,2.1,95,0.06,,,0.01,Rainwise IP-100,2013-08-29 00:39:00,
2013-08-28 20:44:00,63.7,62.0,29.96,ESE,112,1.4,2.0,96,0.06,,,0.01,Rainwise IP-100,2013-08-29 00:44:00,
2013-08-28 20:49:00,63.9,63.0,29.96,ENE,67,2.8,3.0,96,0.00,,,0.01,Rainwise IP-100,2013-08-29 00:49:00,
2013-08-28 20:54:00,64.1,63.0,29.96,NE,45,2.6,4.0,96,0.00,,,0.02,Rainwise IP-100,2013-08-29 00:54:00,
2013-08-28 21:00:00,64.3,63.0,29.96,NE,45,3.0,4.0,96,0.06,,,0.02,Rainwise IP-100,2013-08-29 01:00:00,
2013-08-28 21:05:00,64.5,63.0,29.96,NE,45,1.2,4.0,96,0.00,,,0.02,Rainwise IP-100,2013-08-29 01:05:00,
2013-08-28 21:10:00,64.6,63.0,29.95,NE,45,0.0,3.0,96,0.00,,,0.02,Rainwise IP-100,2013-08-29 01:10:00,
2013-08-28 21:15:00,64.8,63.0,29.95,East,90,1.4,2.0,97,0.00,,,0.03,Rainwise IP-100,2013-08-29 01:15:00,
2013-08-28 21:20:00,65.0,64.0,29.96,ENE,67,2.3,3.0,97,0.06,,,0.03,Rainwise IP-100,2013-08-29 01:20:00,
2013-08-28 21:25:00,65.2,64.0,29.95,ENE,67,1.4,3.0,97,0.06,,,0.03,Rainwise IP-100,2013-08-29 01:25:00,
2013-08-28 21:30:00,65.3,64.0,29.95,ESE,112,1.6,3.0,97,0.06,,,0.04,Rainwise IP-100,2013-08-29 01:30:00,
2013-08-28 21:36:00,65.2,64.0,29.95,SSE,157,1.4,2.0,97,0.06,,,0.04,Rainwise IP-100,2013-08-29 01:36:00,
2013-08-28 21:41:00,65.0,64.0,29.95,SSE,157,0.0,1.0,97,0.00,,,0.04,Rainwise IP-100,2013-08-29 01:41:00,
2013-08-28 21:46:00,64.9,64.0,29.95,SW,225,1.4,2.0,97,0.06,,,0.05,Rainwise IP-100,2013-08-29 01:46:00,
2013-08-28 21:51:00,65.2,64.0,29.96,WSW,247,1.2,2.0,97,0.06,,,0.05,Rainwise IP-100,2013-08-29 01:51:00,
2013-08-28 21:56:00,65.7,64.0,29.95,North,360,1.4,2.0,97,0.00,,,0.05,Rainwise IP-100,2013-08-29 01:56:00,
2013-08-28 22:01:00,66.1,65.0,29.95,North,360,3.0,3.0,97,0.06,,,0.06,Rainwise IP-100,2013-08-29 02:01:00,
2013-08-28 22:06:00,66.2,65.0,29.95,North,360,3.7,6.0,97,0.06,,,0.06,Rainwise IP-100,2013-08-29 02:06:00,
2013-08-28 22:11:00,66.3,66.0,29.95,North,360,1.6,4.0,98,0.00,,,0.06,Rainwise IP-100,2013-08-29 02:11:00,
2013-08-28 22:17:00,66.3,66.0,29.95,North,360,1.4,1.4,98,0.00,,,0.06,Rainwise IP-100,2013-08-29 02:17:00,
2013-08-28 22:22:00,66.3,66.0,29.95,North,360,0.0,1.0,98,0.00,,,0.06,Rainwise IP-100,2013-08-29 02:22:00,
2013-08-28 22:27:00,66.2,66.0,29.94,North,360,1.6,1.6,98,0.00,,,0.06,Rainwise IP-100,2013-08-29 02:27:00,
2013-08-28 22:32:00,66.2,66.0,29.95,North,360,1.2,2.0,98,0.00,,,0.06,Rainwise IP-100,2013-08-29 02:32:00,
2013-08-28 22:37:00,66.2,66.0,29.95,NNE,22,1.2,3.0,98,0.00,,,0.06,Rainwise IP-100,2013-08-29 02:37:00,
2013-08-28 22:42:00,66.2,66.0,29.95,WNW,292,3.0,3.0,98,0.00,,,0.06,Rainwise IP-100,2013-08-29 02:42:00,
2013-08-28 22:47:00,66.1,65.0,29.94,WNW,292,3.5,4.0,98,0.00,,,0.06,Rainwise IP-100,2013-08-29 02:47:00,
2013-08-28 22:48:00,66.1,65.0,29.94,WNW,292,2.8,4.0,98,0.00,,,0.06,Rainwise IP-100,2013-08-29 02:48:00,
2013-08-28 22:53:00,65.9,65.0,29.95,WNW,292,3.7,4.0,98,0.00,,,0.06,Rainwise IP-100,2013-08-29 02:53:00,
2013-08-28 22:55:00,65.8,65.0,29.95,West,270,4.0,4.0,98,0.00,,,0.06,Rainwise IP-100,2013-08-29 02:55:00,
2013-08-28 23:01:00,65.8,65.0,29.95,West,270,2.6,5.0,98,0.00,,,0.06,Rainwise IP-100,2013-08-29 03:01:00,
2013-08-28 23:06:00,65.9,65.0,29.95,WNW,292,2.8,4.0,97,0.00,,,0.06,Rainwise IP-100,2013-08-29 03:06:00,
2013-08-28 23:11:00,66.0,65.0,29.95,NW,315,2.6,4.0,97,0.00,,,0.06,Rainwise IP-100,2013-08-29 03:11:00,
2013-08-28 23:16:00,66.0,65.0,29.95,NW,315,1.2,3.0,97,0.00,,,0.06,Rainwise IP-100,2013-08-29 03:16:00,
2013-08-28 23:21:00,65.9,65.0,29.95,NW,315,0.0,1.0,97,0.00,,,0.06,Rainwise IP-100,2013-08-29 03:21:00,
2013-08-28 23:26:00,65.8,64.0,29.96,NW,315,1.4,1.4,97,0.00,,,0.06,Rainwise IP-100,2013-08-29 03:26:00,
2013-08-28 23:31:00,65.7,64.0,29.96,SSE,157,2.1,3.0,97,0.00,,,0.06,Rainwise IP-100,2013-08-29 03:31:00,
2013-08-28 23:37:00,65.4,64.0,29.96,SE,135,3.7,3.7,97,0.00,,,0.06,Rainwise IP-100,2013-08-29 03:37:00,
2013-08-28 23:42:00,65.1,64.0,29.97,ESE,112,3.3,3.3,97,0.00,,,0.06,Rainwise IP-100,2013-08-29 03:42:00,
2013-08-28 23:47:00,64.9,64.0,29.97,ESE,112,0.0,3.0,97,0.00,,,0.06,Rainwise IP-100,2013-08-29 03:47:00,
2013-08-28 23:52:00,65.0,64.0,29.98,SSE,157,0.0,1.0,98,0.00,,,0.06,Rainwise IP-100,2013-08-29 03:52:00,
2013-08-28 23:57:00,65.1,64.0,29.98,SSE,157,0.0,1.0,98,0.00,,,0.06,Rainwise IP-100,2013-08-29 03:57:00,